Terminal Aerodrome Forecast
Issued by NWS Melbourne, FL

Home | Current Version | Previous Version | Text Only | Print | Product List | Glossary On
Versions: 1 2 3 4 5 6 7 8 9 10 11 12 13 14 15 16 17 18 19 20 21 22 23 24
084
FTUS42 KMLB 040541
TAFMLB
TAF
KMLB 040541Z 0406/0506 21007KT P6SM FEW110
     FM040900 21007KT P6SM SCT030
     FM041100 21009KT P6SM OVC025
     FM041200 22010KT P6SM VCSH SCT009 BKN020
     FM041400 23011G17KT P6SM VCTS OVC019CB
      TEMPO 0414/0418 3SM TSRA OVC019CB
     FM042000 27011KT P6SM VCSH BKN025 BKN040=

USA.gov is the U.S. government's official web portal to all federal, state and local government web resources and services.